Orbital Elements at Epoch 2459000.5 (2020-May-31.0) TDB
Reference: JPL 20 (heliocentric ecliptic J2000)
Element | Value | Uncertainty (1-sigma) | Units |
e | .08195306502909877 | 5.2607e-08 | |
a | 2.690112974938219 | 1.5899e-08 | au |
q | 2.469649971367485 | 1.4588e-07 | au |
i | 5.844638809366693 | 6.574e-06 | deg |
node | 349.1383430422102 | 4.622e-05 | deg |
peri | 129.2659615941284 | 6.0715e-05 | deg |
M | 26.21618263484808 | 3.7077e-05 | deg |
tp | 2458883.139714117197 (2020-Feb-03.63971412) | 0.00016597 | TDB |
period | 1611.58867048966 4.41 | 1.4287e-05 3.912e-08 | d yr |
n | .2233820618077557 | 1.9803e-09 | deg/d |
Q | 2.910575978508953 | 1.7202e-08 | au |
|
| | Orbit Determination Parameters
Additional Information
|